EW0921 Weather Reports


Display with metric or nautical units.
time (UTC)temp
F
wind
direction
speed
MPH
gust
MPH
rain 1hr
in
rain 24hr
in
rain mn
in
humidity
%
barometer
mb
20260504021600 0 227 0.0 0.0 0.00 0.00 0.00 1012.9
20260504020105 0 227 0.0 0.0 0.00 0.00 0.00 1013.0
20260504014551 0 227 0.0 0.0 0.00 0.00 0.00 1012.9
20260504013051 0 227 0.0 0.0 0.00 0.00 0.00 1012.8
20260504011541 0 227 0.0 0.0 0.00 0.00 0.00 1012.6
20260504010045 0 227 0.0 0.0 0.00 0.00 0.00 1012.7
20260504004541 0 227 0.0 0.0 0.00 0.00 0.00 1012.7
20260504003030 0 227 0.0 0.0 0.00 0.00 0.00 1012.6
20260504001532 0 227 0.0 4.0 0.00 0.00 0.00 1012.6
20260504000020 0 281 1.0 5.0 0.00 0.00 0.00 1012.5
20260503234518 0 252 0.0 5.0 0.00 0.00 0.00 1012.5
20260503233012 0 247 1.0 4.0 0.00 0.00 0.00 1012.5
20260503231507 0 306 2.0 8.0 0.00 0.00 0.00 1012.5
20260503230002 0 297 1.0 13.0 0.00 0.00 0.00 1012.5
20260503224602 0 248 4.0 11.0 0.00 0.00 0.00 1012.6
20260503223109 0 206 2.0 11.0 0.00 0.00 0.00 1012.7
20260503221553 0 95 4.0 12.0 0.00 0.00 0.00 1012.6
20260503220047 0 261 2.0 9.0 0.00 0.00 0.00 1012.7
20260503214552 0 28 1.0 8.0 0.00 0.00 0.00 1012.6
20260503213036 0 74 3.0 9.0 0.00 0.00 0.00 1012.4
20260503211532 0 284 3.0 8.0 0.00 0.00 0.00 1012.5
20260503210027 0 348 2.0 9.0 0.00 0.00 0.00 1012.7
20260503204528 0 271 4.0 11.0 0.00 0.00 0.00 1012.8
20260503203019 0 273 5.0 15.0 0.00 0.00 0.00 1012.9
20260503201515 0 214 3.0 12.0 0.00 0.00 0.00 1013.1
20260503200010 0 237 2.0 8.0 0.00 0.00 0.00 1013.3
20260503194506 0 306 4.0 11.0 0.00 0.00 0.00 1013.5
20260503193000 0 234 4.0 9.0 0.00 0.00 0.00 1013.7
20260503191604 0 188 2.0 10.0 0.00 0.00 0.00 1014.0
20260503190052 0 277 5.0 10.0 0.00 0.00 0.00 1014.1
20260503184548 0 286 3.0 11.0 0.00 0.00 0.00 1014.3
20260503183052 0 17 2.0 12.0 0.00 0.00 0.00 1014.4
20260503181556 0 168 2.0 11.0 0.00 0.00 0.00 1014.7
20260503180045 0 274 3.0 10.0 0.00 0.00 0.00 1014.9
20260503174530 0 324 5.0 10.0 0.00 0.00 0.00 1015.0
20260503173026 0 330 4.0 13.0 0.00 0.00 0.00 1015.2
20260503171525 0 144 2.0 9.0 0.00 0.00 0.00 1015.2
20260503081545 0 296 0.0 0.0 0.00 0.01 0.00 1015.3
20260503071527 0 296 0.0 0.0 0.00 0.01 0.00 1015.1
20260503054501 0 296 0.0 0.0 0.00 0.01 0.00 1015.3
20260503053057 0 296 0.0 0.0 0.00 0.01 0.00 1015.3
20260503051553 0 296 0.0 0.0 0.00 0.01 0.00 1015.4
20260503050048 0 296 0.0 0.0 0.00 0.01 0.00 1015.5
20260503044600 0 296 0.0 0.0 0.00 0.01 0.00 1015.5
20260503043041 0 296 0.0 0.0 0.00 0.01 0.00 1015.6
20260503041537 0 296 0.0 0.0 0.00 0.01 0.00 1015.6
20260503040035 0 296 0.0 0.0 0.00 0.01 0.00 1015.6
20260503034526 0 296 0.0 0.0 0.00 0.01 0.01 1015.6
20260503033022 0 296 0.0 0.0 0.00 0.01 0.01 1015.6
20260503031517 0 296 0.0 0.0 0.00 0.01 0.01 1015.6
20260503030012 0 296 0.0 0.0 0.00 0.01 0.01 1015.6
20260503024508 0 296 0.0 0.0 0.00 0.01 0.01 1015.7
20260503023006 0 296 0.0 0.0 0.00 0.01 0.01 1015.8